SB KEPS @ AMSAT $ORB10266.N 2Line Orbital Elements 10266.AMSAT
HR AMSAT ORBITAL ELEMENTS FOR AMATEUR SATELLITES IN NASA FORMAT FROM WA5QGD FORT WORTH,TX September 23, 2010 Send Subscribe/unsubscribe to KEPS at http://www.amsat.org/mailman/listinfo/keps BID: ORB10266.N
DECODE 2-LINE ELSETS WITH THE FOLLOWING KEY: 1 AAAAAU 00 0 0 BBBBB.BBBBBBBB .CCCCCCCC 00000-0 00000-0 0 DDDZ 2 AAAAA EEE.EEEE FFF.FFFF GGGGGGG HHH.HHHH III.IIII JJ.JJJJJJJJKKKKKZ KEY: A-CATALOGNUM B-EPOCHTIME C-DECAY D-ELSETNUM E-INCLINATION F-RAAN G-ECCENTRICITY H-ARGPERIGEE I-MNANOM J-MNMOTION K-ORBITNUM Z-CHECKSUM
TO ALL RADIO AMATEURS BT
AO-07 1 07530U 74089B 10266.84319137 -.00000027 00000-0 10000-3 0 8852 2 07530 101.4016 278.8794 0012079 080.4295 279.8142 12.53579591640811 FO-29 1 24278U 96046B 10265.94204269 .00000064 00000-0 10299-3 0 04054 2 24278 098.5160 081.5749 0349957 230.1883 126.7975 13.52953202696325 SO-33 1 25509U 98061B 10265.48173376 .00000078 00000-0 53658-5 0 08017 2 25509 031.4334 318.3102 0353296 060.6605 302.8829 14.28329749621976 RS-22 1 27939U 03042A 10266.64966554 .00000107 00000-0 29385-4 0 5691 2 27939 097.8776 127.8856 0014640 106.5920 253.6888 14.63454188373356 VO-52 1 28650U 05017B 10266.65610192 .00000532 00000-0 73458-4 0 6043 2 28650 097.6828 316.1960 0026307 316.5900 043.3240 14.81812417291275 SO-67 1 35870U 09049F 10266.73425126 .00000881 00000-0 42675-4 0 1324 2 35870 097.3218 313.2117 0004558 103.5936 352.5134 15.21064037 56432 HO-68 1 36122U 09072B 10266.67867551 -.00000045 00000-0 00000 0 0 6954 2 36122 100.4589 326.0643 0007810 111.3739 248.8203 13.16281741 37177 UO-11 1 14781U 84021B 10265.72843712 .00000419 00000-0 62642-4 0 3457 2 14781 098.0459 317.7101 0008016 286.4090 073.6248 14.79837385426234 AO-16 1 20439U 90005D 10265.87978753 .00000024 00000-0 24728-4 0 00017 2 20439 098.3429 219.9937 0010009 235.3555 124.6685 14.31874823079361 LO-19 1 20442U 90005G 10265.79199324 .00000006 00000-0 17641-4 0 9094 2 20442 098.3048 225.3186 0011175 229.0160 131.0072 14.32104616 79523 AO-27 1 22825U 93061C 10265.73895177 .00000020 00000-0 24861-4 0 6320 2 22825 098.4938 211.2053 0008303 348.4384 011.6611 14.29308571885988 IO-26 1 22826U 93061D 10265.85690217 .00000028 00000-0 27560-4 0 03720 2 22826 098.4884 211.8862 0008690 343.0843 017.0053 14.29566073886112 GO-32 1 25397U 98043D 10266.52826931 .00000017 00000-0 25303-4 0 2900 2 25397 098.3165 268.5781 0001331 022.4119 337.7103 14.23185606634030 NO-44 1 26931U 01043C 10265.65865937 -.00000025 00000-0 22417-4 0 5648 2 26931 067.0533 312.8443 0005364 272.2035 087.8482 14.29610807468688 SO-50 1 27607U 02058C 10265.66498712 .00000136 00000-0 43312-4 0 02769 2 27607 064.5565 060.4325 0041204 034.9990 325.3782 14.71578470416724 CO-55 1 27844U 03031E 10266.55129911 .00000096 00000-0 64619-4 0 9423 2 27844 098.7116 274.1231 0008939 248.0949 111.9297 14.20731454375055 CO-57 1 27848U 03031J 10265.53875341 .00000066 00000-0 51318-4 0 08898 2 27848 098.7163 272.2380 0008907 254.3899 105.6294 14.20521843374868 AO-51 1 28375U 04025K 10266.42290431 .00000026 00000-0 20381-4 0 7811 2 28375 098.0707 254.3701 0083638 158.5192 201.9548 14.40699590327658 GENESAT1 1 29655U 06058C 10216.61700559 .10637092 69904-5 33715-3 0 2265 2 29655 040.0059 067.3006 0005079 297.8744 064.7087 16.44862838207776 CP3 1 31129U 07012N 10265.63708848 -.00000067 00000-0 -44497-5 0 06832 2 31129 097.9313 299.9526 0101293 292.0237 067.0215 14.52304546182009 CO-65 1 32785U 08021C 10266.69326069 .00000479 00000-0 67400-4 0 7913 2 32785 097.8869 330.2074 0014658 329.0234 031.0096 14.81720875130073 KKS-1 1 33493U 09002B 10266.82494025 .00000721 00000-0 99621-4 0 8802 2 33493 098.0962 027.2214 0019945 178.8034 181.3231 14.81109838 90084 SOHLA-1 1 33496U 09002E 10266.75654560 .00000084 00000-0 22420-4 0 2112 2 33496 098.0645 014.5886 0005560 247.9763 112.0890 14.69517116 89352 TISAT-1 1 36799U 10035E 10266.82046842 .00000431 00000-0 63915-4 0 1529 2 36799 098.1389 327.0126 0016557 059.5844 300.6980 14.80173312 10900 STUDSAT 1 36801U 10035G 10265.76603852 .00001074 00000-0 15017-3 0 00752 2 36801 098.1412 325.8754 0015120 050.5372 309.7172 14.79658082010741 NOAA-10 1 16969U 86073A 10266.14738576 -.00000061 00000-0 -67540-5 0 2125 2 16969 098.6501 294.1663 0011536 287.8038 072.1872 14.27427141249550 NOAA-11 1 19531U 88089A 10266.32109722 -.00000186 00000-0 -73777-4 0 2224 2 19531 098.7674 353.6646 0010773 226.7122 133.3169 14.14934747135015 NOAA-12 1 21263U 91032A 10266.74801863 .00000097 00000-0 40863-4 0 7169 2 21263 098.7654 279.8966 0011673 238.8810 121.1704 14.25655199 6492 MET-3/5 1 21655U 91056A 10266.71181367 .00000051 00000-0 10000-3 0 9214 2 21655 082.5534 239.0143 0014904 101.2668 259.0089 13.17026021918646 MET-2/21 1 22782U 93055A 10265.48093073 .00000068 00000-0 48054-4 0 08911 2 22782 082.5501 175.2614 0023459 126.9256 233.4052 13.83649921861532 OKEAN-4 1 23317U 94066A 10266.63947293 .00000427 00000-0 49680-4 0 3470 2 23317 082.5368 261.9599 0020314 278.7766 081.1158 14.82863675861047 NOAA-14 1 23455U 94089A 10266.79715919 -.00000002 00000-0 00000 0 0 2054 2 23455 098.8721 346.8251 0008927 320.3691 039.7314 14.13794277811524 NOAA-15 1 25338U 98030A 10266.81711799 .00000087 00000-0 37106-4 0 5306 2 25338 098.6297 252.0226 0011151 143.4271 216.8146 14.24855774642809 RESURS 1 25394U 98043A 10266.56395337 .00000008 00000-0 21277-4 0 6104 2 25394 098.3044 279.2850 0001063 341.7576 018.3569 14.24209968634357 FENGYUN1 1 25730U 99025A 10265.85783920 .00000763 00000-0 47050-3 0 01445 2 25730 098.7933 228.2980 0022390 352.2100 007.8691 14.08294241585439 OKEAN-0 1 25860U 99039A 10266.53127760 .00000118 00000-0 25471-4 0 1060 2 25860 097.8452 235.9515 0001778 094.9426 265.1985 14.73664310601384 NOAA-16 1 26536U 00055A 10266.47035811 .00000360 00000-0 21946-3 0 69 2 26536 099.1679 286.2452 0011155 064.6124 295.6235 14.12578542515709 NOAA-17 1 27453U 02032A 10266.35450042 .00000098 00000-0 60570-4 0 19 2 27453 098.4213 312.7955 0011427 205.8890 154.1704 14.24192247428674 NOAA-18 1 28654U 05018A 10266.41499292 .00000297 00000-0 18849-3 0 4899 2 28654 098.9582 212.4333 0014953 134.1507 226.0906 14.11391056275290 NOAA-19 1 33591U 09005A 10266.42443257 -.00000105 00000-0 -34490-4 0 6855 2 33591 098.7947 206.4852 0014665 015.0414 345.1181 14.11084922 83760 HUBBLE 1 20580U 90037B 10265.25740514 .00000595 00000-0 32635-4 0 6490 2 20580 028.4710 326.1269 0003597 154.1233 205.9576 15.01040865919352 ISS 1 25544U 98067A 10267.01529725 .00016022 00000-0 12801-3 0 9432 2 25544 051.6446 084.9754 0006746 028.0911 112.1887 15.71273653679010 CO-58 1 28895U 05043F 10265.71651820 .00000345 00000-0 81199-4 0 06876 2 28895 097.9979 146.8855 0017392 343.0201 017.0438 14.59936295261214 FALCON 1 30776U 07006E 10266.87694109 .00000995 00000-0 73877-4 0 9219 2 30776 035.4330 165.0590 0001925 310.1256 049.9275 15.03829462194925 MAST 1 31126U 07012K 10266.58732791 .00000114 00000-0 36534-4 0 9700 2 31126 097.9281 303.4659 0093594 280.5967 078.4688 14.53621528182355 CAPE1 1 31130U 07012P 10266.59608780 .00000126 00000-0 39841-4 0 9893 2 31130 097.9317 300.6921 0101729 289.3200 069.6997 14.52224023181945 COMPASS 1 32787U 08021E 10265.19619769 .00000148 00000-0 25301-4 0 07839 2 32787 097.8851 328.5740 0015330 333.8558 026.1916 14.81969727129868 AAUSAT2 1 32788U 08021F 10266.67499206 .00000544 00000-0 74929-4 0 7757 2 32788 097.8851 330.1810 0014801 329.8490 030.1868 14.82121499130093 DO-64 1 32789U 08021G 10266.74023887 .00000825 00000-0 10966-3 0 7936 2 32789 097.8927 330.8351 0015039 327.9849 032.0455 14.82316573130100 CO-66 1 32791U 08021J 10265.16518040 .00000595 00000-0 82048-4 0 07782 2 32791 097.8866 328.5451 0015692 332.6641 027.3728 14.81742303129817 RS-30 1 32953U 08025A 10266.72864812 .00000010 00000-0 00000 0 0 698 2 32953 082.5056 328.4102 0017620 245.7386 114.1853 12.43007946105983 TACSAT-3 1 35001U 09028A 10266.66608249 .00006611 00000-0 15160-3 0 3897 2 35001 040.4564 342.1633 0021586 019.4372 340.7262 15.42775913 75846 PHARMSAT 1 35002U 09028B 10266.58932248 .00005954 00000-0 13490-3 0 3666 2 35002 040.4711 340.3126 0024496 022.0283 338.1580 15.43193236 75850 HAWKSAT1 1 35003U 09028C 10265.62701669 .00013877 00000-0 26700-3 0 3966 2 35003 040.4617 337.6823 0022165 035.4209 324.8077 15.47301423 75807 CP6 1 35004U 09028D 10265.56097960 .00016993 00000-0 31228-3 0 3921 2 35004 040.4623 336.2687 0021433 039.2157 321.0212 15.48525320 75804 AEROCUB3 1 35005U 09028E 10266.56295885 .00068428 00000-0 83381-3 0 4602 2 35005 040.4689 321.1281 0020400 073.2787 287.0272 15.59266608 76069 CASTOR 1 35694U 09038F 10230.44082147 .07179566 12689-4 99310-4 0 6559 2 35694 051.5930 222.0149 0004218 308.0851 053.0105 16.48877011 61107 METEOR-M 1 35865U 09049A 10266.72493621 .00000176 00000-0 10000-3 0 6825 2 35865 098.7476 319.7666 0003385 076.8451 283.3063 14.21831589 52721 RS-38 1 35869U 09049E 10266.68568413 .00000177 00000-0 10000-3 0 6939 2 35869 098.7463 319.7665 0005413 078.5901 281.5866 14.21989016 52723 /EX
participants (1)
-
Keith Pugh